When you browse on this site, cookies collect data to enhance your experience and personalize the content and advertising you see.
Visit our Privacy Policy to learn more. By continuing to use the site, you agree to this use of cookies and data.
  • In Switzerland
  • List of Countries
  • For 7 days
  • Water Temperature
  • Satellite Maps
  • Weather Map
  • Weather Widgets
  • user-avatar
    Login

    Hourly Weather Borovoe

    Today, 17 November, Saturday

    Time Temperature Precipitation Wind Pressure Humidity
    00:00 -3°C° 0 mm 1 mps 770 mmHg 24%
    01:00 -3°C° 0 mm 1 mps 770 mmHg 24%
    02:00 -3°C° 0 mm 1 mps 770 mmHg 24%
    03:00 -3°C° 0 mm 1 mps 770 mmHg 27%
    04:00 -3°C° 0 mm 1 mps 769 mmHg 27%
    05:00 -6°C° 0 mm 2 mps 769 mmHg 28%
    06:00 -6°C° 0 mm 2 mps 768 mmHg 29%
    07:00 -5°C° 0 mm 2 mps 768 mmHg 29%
    08:00 -5°C° 0 mm 2 mps 767 mmHg 29%
    09:00 -6°C° 0 mm 3 mps 767 mmHg 29%
    10:00 -4°C° 0 mm 3 mps 767 mmHg 28%
    11:00 -2°C° 0 mm 3 mps 766 mmHg 27%
    12:00 -2°C° 0 mm 4 mps 766 mmHg 26%
    13:00 -2°C° 0 mm 4 mps 765 mmHg 27%
    14:00 -2°C° 0 mm 4 mps 764 mmHg 29%
    15:00 0°C° 0 mm 3 mps 763 mmHg 31%
    16:00 -1°C° 0 mm 3 mps 763 mmHg 32%
    17:00 -2°C° 0 mm 4 mps 762 mmHg 34%
    18:00 -3°C° 0 mm 4 mps 761 mmHg 36%
    19:00 -3°C° 0 mm 4 mps 761 mmHg 38%
    20:00 -3°C° 0 mm 4 mps 760 mmHg 40%
    21:00 -3°C° 0 mm 4 mps 759 mmHg 42%
    22:00 -3°C° 0 mm 4 mps 758 mmHg 45%
    23:00 -3°C° 0 mm 4 mps 758 mmHg 48%

    Tomorrow, 18 November, Sunday

    Time Temperature Precipitation Wind Pressure Humidity
    00:00 -3°C° 0 mm 4 mps 757 mmHg 50%
    01:00 -3°C° 0.2 mm 4 mps 757 mmHg 58%
    02:00 -3°C° 0.2 mm 4 mps 756 mmHg 66%
    03:00 -3°C° 0.2 mm 4 mps 756 mmHg 75%
    04:00 -3°C° 0.1 mm 4 mps 755 mmHg 78%
    05:00 -3°C° 0.1 mm 4 mps 755 mmHg 81%
    06:00 -2°C° 0.1 mm 3 mps 755 mmHg 84%
    07:00 -2°C° 0.1 mm 3 mps 754 mmHg 83%
    08:00 -2°C° 0.1 mm 3 mps 754 mmHg 81%
    09:00 -2°C° 0.1 mm 3 mps 754 mmHg 80%
    10:00 -2°C° 0.1 mm 3 mps 754 mmHg 80%
    11:00 -1°C° 0.1 mm 3 mps 754 mmHg 81%
    12:00 -1°C° 0.1 mm 3 mps 754 mmHg 81%
    13:00 -1°C° 0 mm 2 mps 754 mmHg 82%
    14:00 -1°C° 0 mm 2 mps 754 mmHg 83%
    15:00 -1°C° 0 mm 2 mps 754 mmHg 84%
    16:00 -1°C° 0 mm 2 mps 755 mmHg 86%
    17:00 -1°C° 0 mm 2 mps 755 mmHg 88%
    18:00 -2°C° 0 mm 2 mps 755 mmHg 90%
    19:00 0°C° 0 mm 1 mps 755 mmHg 91%
    20:00 0°C° 0 mm 1 mps 756 mmHg 92%
    21:00 0°C° 0 mm 1 mps 756 mmHg 93%
    22:00 0°C° 0 mm 1 mps 756 mmHg 93%
    23:00 0°C° 0 mm 1 mps 756 mmHg 93%

    Day after tomorrow, 19 November, Monday

    Time Temperature Precipitation Wind Pressure Humidity
    00:00 0°C° 0 mm 1 mps 757 mmHg 94%
    01:00 0°C° 0 mm 1 mps 757 mmHg 93%
    02:00 0°C° 0 mm 1 mps 757 mmHg 93%
    03:00 -1°C° 0 mm 0 mps 758 mmHg 93%
    04:00 -1°C° 0 mm 0 mps 758 mmHg 93%
    05:00 0°C° 0 mm 1 mps 758 mmHg 94%
    06:00 0°C° 0 mm 1 mps 758 mmHg 94%
    07:00 0°C° 0 mm 1 mps 758 mmHg 94%
    08:00 0°C° 0 mm 1 mps 759 mmHg 94%
    09:00 0°C° 0 mm 1 mps 759 mmHg 94%
    10:00 +1°C° 0 mm 1 mps 759 mmHg 91%
    11:00 +2°C° 0 mm 1 mps 760 mmHg 88%
    12:00 +2°C° 0 mm 1 mps 760 mmHg 85%
    13:00 +2°C° 0 mm 1 mps 760 mmHg 87%
    14:00 +2°C° 0 mm 1 mps 761 mmHg 89%
    15:00 +2°C° 0 mm 1 mps 761 mmHg 91%
    16:00 +1°C° 0 mm 1 mps 761 mmHg 92%
    17:00 0°C° 0 mm 1 mps 761 mmHg 93%
    18:00 -2°C° 0 mm 2 mps 761 mmHg 95%
    19:00 -2°C° 0 mm 2 mps 761 mmHg 95%
    20:00 -3°C° 0 mm 2 mps 761 mmHg 96%
    21:00 -3°C° 0 mm 2 mps 761 mmHg 96%
    22:00 -2°C° 0 mm 2 mps 761 mmHg 96%
    23:00 -2°C° 0 mm 2 mps 762 mmHg 96%

    20 November, Tuesday

    Time Temperature Precipitation Wind Pressure Humidity
    00:00 -2°C° 0 mm 2 mps 762 mmHg 96%
    01:00 -2°C° 0 mm 2 mps 762 mmHg 96%
    02:00 -2°C° 0 mm 2 mps 762 mmHg 96%
    03:00 -2°C° 0 mm 2 mps 762 mmHg 95%
    04:00 -2°C° 0 mm 2 mps 761 mmHg 95%
    05:00 -2°C° 0 mm 2 mps 761 mmHg 95%
    06:00 -2°C° 0 mm 2 mps 761 mmHg 95%
    07:00 -2°C° 0 mm 2 mps 761 mmHg 94%
    08:00 -2°C° 0 mm 2 mps 761 mmHg 94%
    09:00 -3°C° 0 mm 2 mps 761 mmHg 94%
    10:00 -2°C° 0 mm 2 mps 761 mmHg 89%
    11:00 -2°C° 0 mm 2 mps 761 mmHg 85%
    12:00 -1°C° 0 mm 2 mps 760 mmHg 81%
    13:00 -1°C° 0 mm 2 mps 760 mmHg 80%
    14:00 -1°C° 0 mm 2 mps 760 mmHg 80%
    15:00 -1°C° 0 mm 2 mps 759 mmHg 79%
    16:00 -2°C° 0 mm 2 mps 759 mmHg 80%
    17:00 -2°C° 0 mm 2 mps 759 mmHg 81%
    18:00 -3°C° 0 mm 2 mps 759 mmHg 83%
    19:00 -3°C° 0 mm 2 mps 759 mmHg 83%
    20:00 -3°C° 0 mm 2 mps 758 mmHg 83%
    21:00 -3°C° 0 mm 2 mps 758 mmHg 83%
    22:00 -4°C° 0 mm 2 mps 758 mmHg 84%
    23:00 -4°C° 0 mm 2 mps 758 mmHg 84%

    21 November, Wednesday

    Time Temperature Precipitation Wind Pressure Humidity
    00:00 -4°C° 0 mm 2 mps 757 mmHg 85%
    01:00 -4°C° 0 mm 2 mps 757 mmHg 85%
    02:00 -4°C° 0 mm 2 mps 757 mmHg 85%
    03:00 -5°C° 0 mm 3 mps 757 mmHg 85%
    04:00 -5°C° 0 mm 3 mps 756 mmHg 86%
    05:00 -5°C° 0 mm 3 mps 756 mmHg 86%
    06:00 -6°C° 0 mm 3 mps 756 mmHg 87%
    07:00 -6°C° 0 mm 3 mps 756 mmHg 87%
    08:00 -6°C° 0 mm 3 mps 756 mmHg 87%
    09:00 -6°C° 0 mm 3 mps 755 mmHg 87%
    10:00 -5°C° 0 mm 3 mps 755 mmHg 84%
    11:00 -4°C° 0 mm 3 mps 755 mmHg 80%
    12:00 -4°C° 0 mm 4 mps 755 mmHg 77%
    13:00 -4°C° 0 mm 4 mps 755 mmHg 77%
    14:00 -3°C° 0 mm 4 mps 755 mmHg 78%
    15:00 -3°C° 0 mm 4 mps 755 mmHg 79%
    16:00 -2°C° 0 mm 3 mps 755 mmHg 79%
    17:00 -2°C° 0 mm 3 mps 755 mmHg 80%
    18:00 -4°C° 0 mm 3 mps 756 mmHg 81%
    19:00 -4°C° 0 mm 3 mps 756 mmHg 81%
    20:00 -4°C° 0 mm 3 mps 756 mmHg 81%
    21:00 -4°C° 0 mm 3 mps 756 mmHg 82%
    22:00 -4°C° 0 mm 3 mps 756 mmHg 82%
    23:00 -4°C° 0 mm 3 mps 756 mmHg 83%

    22 November, Thursday

    Time Temperature Precipitation Wind Pressure Humidity
    00:00 -5°C° 0 mm 3 mps 756 mmHg 84%
    01:00 -5°C° 0 mm 3 mps 756 mmHg 85%
    02:00 -6°C° 0 mm 3 mps 755 mmHg 86%
    03:00 -6°C° 0 mm 3 mps 755 mmHg 87%
    04:00 -6°C° 0 mm 3 mps 755 mmHg 86%
    05:00 -7°C° 0 mm 3 mps 754 mmHg 86%
    06:00 -7°C° 0 mm 3 mps 754 mmHg 86%
    07:00 -8°C° 0 mm 4 mps 754 mmHg 86%
    08:00 -7°C° 0 mm 4 mps 753 mmHg 85%
    09:00 -7°C° 0 mm 4 mps 753 mmHg 84%
    10:00 -6°C° 0 mm 5 mps 752 mmHg 80%
    11:00 -6°C° 0 mm 6 mps 752 mmHg 76%
    12:00 -5°C° 0 mm 6 mps 751 mmHg 72%
    13:00 -5°C° 0 mm 6 mps 751 mmHg 72%
    14:00 -5°C° 0 mm 6 mps 750 mmHg 73%
    15:00 -5°C° 0 mm 6 mps 750 mmHg 74%
    16:00 -5°C° 0 mm 6 mps 750 mmHg 75%
    17:00 -5°C° 0 mm 6 mps 750 mmHg 76%
    18:00 -5°C° 0 mm 6 mps 750 mmHg 77%
    19:00 -4°C° 0 mm 6 mps 750 mmHg 79%
    20:00 -4°C° 0 mm 6 mps 750 mmHg 80%
    21:00 -4°C° 0 mm 6 mps 751 mmHg 81%
    22:00 -4°C° 0.1 mm 5 mps 751 mmHg 80%
    23:00 -4°C° 0.1 mm 5 mps 752 mmHg 79%
    Show more